| time (UTC) | temp F | wind direction | speed MPH | gust MPH | rain 1hr in | rain 24hr in | rain mn in | humidity % | barometer mb |
| 20260905012053 | 71 | 224 | 0.0 | 0.0 | 0.00 | 0.32 | 0.32 | 99 | 1012.8 |
| 20260905011050 | 72 | 219 | 0.0 | 0.0 | 0.00 | 0.32 | 0.32 | 99 | 1012.4 |
| 20260905010046 | 72 | 223 | 0.0 | 0.0 | 0.00 | 0.32 | 0.32 | 99 | 1012.6 |
| 20260905005043 | 72 | 215 | 0.0 | 0.0 | 0.00 | 0.32 | 0.32 | 99 | 1012.5 |
| 20260905004038 | 72 | 212 | 0.0 | 0.0 | 0.00 | 0.32 | 0.32 | 99 | 1012.3 |
| 20260905003036 | 72 | 231 | 0.0 | 0.0 | 0.00 | 0.32 | 0.32 | 99 | 1012.5 |
| 20260905002031 | 73 | 211 | 0.0 | 0.0 | 0.00 | 0.32 | 0.32 | 99 | 1012.2 |
| 20260905001032 | 73 | 203 | 0.0 | 0.0 | 0.00 | 0.32 | 0.32 | 99 | 1012.1 |
| 20260905000030 | 73 | 202 | 0.0 | 0.0 | 0.00 | 0.32 | 0.32 | 99 | 1012.2 |
| 20260904235024 | 73 | 218 | 0.0 | 0.0 | 0.00 | 0.32 | 0.32 | 99 | 1012.3 |
| 20260904234020 | 73 | 223 | 0.0 | 0.0 | 0.00 | 0.32 | 0.32 | 99 | 1012.3 |
| 20260904233017 | 73 | 191 | 0.0 | 0.0 | 0.00 | 0.32 | 0.32 | 99 | 1012.6 |
| 20260904232016 | 73 | 226 | 0.0 | 0.0 | 0.00 | 0.32 | 0.32 | 99 | 1012.5 |
| 20260904231012 | 74 | 235 | 0.0 | 0.0 | 0.00 | 0.32 | 0.32 | 99 | 1012.7 |
| 20260904230007 | 74 | 213 | 0.0 | 0.0 | 0.00 | 0.32 | 0.32 | 99 | 1012.4 |
| 20260904225003 | 74 | 217 | 0.0 | 0.0 | 0.00 | 0.32 | 0.32 | 99 | 1012.3 |
| 20260904223959 | 74 | 233 | 0.0 | 0.0 | 0.00 | 0.32 | 0.32 | 99 | 1012.3 |
| 20260904222954 | 74 | 224 | 0.0 | 0.0 | 0.00 | 0.32 | 0.32 | 99 | 1012.3 |
| 20260904221950 | 73 | 211 | 0.0 | 0.0 | 0.00 | 0.32 | 0.32 | 99 | 1012.4 |
| 20260904220945 | 74 | 212 | 0.0 | 0.0 | 0.00 | 0.32 | 0.32 | 99 | 1012.3 |
| 20260904215940 | 74 | 193 | 0.0 | 0.0 | 0.00 | 0.32 | 0.32 | 99 | 1012.8 |
| 20260904214937 | 74 | 221 | 0.0 | 0.0 | 0.00 | 0.32 | 0.32 | 99 | 1013.2 |
| 20260904213932 | 74 | 203 | 0.0 | 0.0 | 0.00 | 0.32 | 0.32 | 99 | 1013.0 |
| 20260904212928 | 74 | 218 | 0.0 | 0.0 | 0.00 | 0.32 | 0.32 | 99 | 1013.0 |
| 20260904211923 | 73 | 227 | 0.0 | 0.0 | 0.00 | 0.32 | 0.32 | 99 | 1013.0 |
| 20260904210919 | 72 | 219 | 0.0 | 0.0 | 0.00 | 0.32 | 0.32 | 99 | 1012.8 |
| 20260904205920 | 71 | 194 | 0.0 | 0.0 | 0.00 | 0.32 | 0.32 | 99 | 1013.4 |
| 20260904204918 | 71 | 189 | 0.0 | 0.0 | 0.00 | 0.32 | 0.32 | 99 | 1013.6 |
| 20260904203915 | 71 | 219 | 0.0 | 0.0 | 0.38 | 0.32 | 0.32 | 99 | 1013.7 |
| 20260904202912 | 72 | 236 | 0.0 | 1.0 | 0.97 | 0.27 | 0.27 | 97 | 1014.5 |
| 20260904201910 | 74 | 284 | 2.0 | 4.0 | 0.31 | 0.10 | 0.10 | 93 | 1014.7 |
| 20260904200906 | 81 | 242 | 2.0 | 3.0 | 0.00 | 0.05 | 0.05 | 80 | 1013.6 |
| 20260904195906 | 87 | 222 | 0.0 | 0.0 | 0.00 | 0.05 | 0.05 | 78 | 1013.4 |
| 20260904194904 | 88 | 218 | 0.0 | 0.0 | 0.00 | 0.05 | 0.05 | 77 | 1012.9 |
| 20260904193859 | 89 | 216 | 0.0 | 0.0 | 0.00 | 0.05 | 0.05 | 72 | 1012.6 |
| 20260904192855 | 89 | 242 | 0.0 | 0.0 | 0.00 | 0.05 | 0.05 | 70 | 1012.7 |
| 20260904191853 | 89 | 209 | 1.0 | 1.0 | 0.00 | 0.05 | 0.05 | 71 | 1012.8 |
| 20260904190851 | 92 | 232 | 0.0 | 1.0 | 0.00 | 0.05 | 0.05 | 66 | 1013.1 |
| 20260904185849 | 91 | 228 | 0.0 | 0.0 | 0.00 | 0.05 | 0.05 | 65 | 1012.6 |
| 20260904184849 | 91 | 287 | 0.0 | 1.0 | 0.00 | 0.05 | 0.05 | 67 | 1012.9 |
| 20260904183845 | 90 | 207 | 1.0 | 1.0 | 0.00 | 0.05 | 0.05 | 69 | 1013.4 |
| 20260904182842 | 91 | 242 | 0.0 | 0.0 | 0.00 | 0.05 | 0.05 | 69 | 1013.4 |
| 20260904181838 | 92 | 274 | 2.0 | 3.0 | 0.00 | 0.05 | 0.05 | 67 | 1013.8 |
| 20260904180833 | 91 | 278 | 2.0 | 2.0 | 0.00 | 0.05 | 0.05 | 70 | 1013.8 |
| 20260904175833 | 91 | 295 | 2.0 | 3.0 | 0.00 | 0.05 | 0.05 | 67 | 1013.8 |
| 20260904174832 | 90 | 245 | 2.0 | 2.0 | 0.00 | 0.05 | 0.05 | 72 | 1014.0 |
| 20260904173830 | 91 | 241 | 4.0 | 4.0 | 0.00 | 0.05 | 0.05 | 70 | 1014.1 |
| 20260904172827 | 89 | 233 | 0.0 | 0.0 | 0.00 | 0.05 | 0.05 | 68 | 1014.3 |
| 20260904171827 | 90 | 259 | 1.0 | 1.0 | 0.00 | 0.05 | 0.05 | 67 | 1014.1 |
| 20260904170824 | 89 | 293 | 1.0 | 2.0 | 0.00 | 0.05 | 0.05 | 69 | 1014.3 |
| 20260904165820 | 89 | 256 | 1.0 | 2.0 | 0.00 | 0.05 | 0.05 | 70 | 1014.5 |
| 20260904164821 | 89 | 248 | 2.0 | 2.0 | 0.00 | 0.05 | 0.05 | 73 | 1014.5 |
| 20260904163817 | 87 | 179 | 0.0 | 1.0 | 0.00 | 0.05 | 0.05 | 72 | 1014.8 |
| 20260904162816 | 88 | 261 | 1.0 | 1.0 | 0.00 | 0.05 | 0.05 | 71 | 1014.8 |
| 20260904161813 | 87 | 269 | 2.0 | 2.0 | 0.00 | 0.05 | 0.05 | 70 | 1014.7 |
| 20260904160808 | 87 | 230 | 2.0 | 4.0 | 0.00 | 0.05 | 0.05 | 69 | 1015.0 |
| 20260904155809 | 88 | 226 | 4.0 | 6.0 | 0.00 | 0.05 | 0.05 | 71 | 1015.1 |
| 20260904154808 | 87 | 302 | 2.0 | 2.0 | 0.00 | 0.05 | 0.05 | 71 | 1014.9 |
| 20260904153805 | 87 | 332 | 2.0 | 3.0 | 0.00 | 0.05 | 0.05 | 69 | 1015.0 |
| 20260904152802 | 87 | 269 | 0.0 | 1.0 | 0.00 | 0.05 | 0.05 | 72 | 1015.0 |
| 20260904151758 | 86 | 266 | 2.0 | 3.0 | 0.00 | 0.05 | 0.05 | 73 | 1015.0 |
| 20260904150753 | 86 | 8 | 3.0 | 3.0 | 0.00 | 0.05 | 0.05 | 72 | 1015.3 |
| 20260904145751 | 85 | 271 | 4.0 | 6.0 | 0.00 | 0.05 | 0.05 | 74 | 1015.1 |
| 20260904144749 | 85 | 214 | 2.0 | 2.0 | 0.00 | 0.05 | 0.05 | 75 | 1015.1 |
| 20260904143746 | 86 | 222 | 3.0 | 4.0 | 0.00 | 0.05 | 0.05 | 75 | 1015.0 |
| 20260904142744 | 85 | 300 | 2.0 | 3.0 | 0.00 | 0.05 | 0.05 | 77 | 1015.1 |
| 20260904141740 | 84 | 232 | 1.0 | 1.0 | 0.00 | 0.05 | 0.05 | 75 | 1015.1 |
| 20260904140737 | 84 | 277 | 2.0 | 2.0 | 0.00 | 0.05 | 0.05 | 76 | 1015.4 |
| 20260904135736 | 85 | 210 | 0.0 | 0.0 | 0.00 | 0.05 | 0.05 | 76 | 1015.1 |
| 20260904134734 | 84 | 232 | 0.0 | 1.0 | 0.00 | 0.05 | 0.05 | 78 | 1015.4 |
| 20260904133734 | 84 | 270 | 3.0 | 3.0 | 0.00 | 0.05 | 0.05 | 78 | 1015.1 |
| 20260904132730 | 82 | 250 | 0.0 | 0.0 | 0.00 | 0.05 | 0.05 | 84 | 1015.1 |
| 20260904131724 | 78 | 219 | 0.0 | 0.0 | 0.00 | 0.05 | 0.05 | 91 | 1015.0 |
| 20260904130720 | 77 | 216 | 0.0 | 0.0 | 0.00 | 0.05 | 0.05 | 99 | 1015.3 |
| 20260904125716 | 75 | 209 | 0.0 | 0.0 | 0.00 | 0.05 | 0.05 | 99 | 1015.3 |
| 20260904124712 | 75 | 194 | 0.0 | 0.0 | 0.00 | 0.05 | 0.05 | 99 | 1015.5 |
| 20260904123708 | 74 | 104 | 0.0 | 0.0 | 0.00 | 0.05 | 0.05 | 99 | 1015.5 |
| 20260904122704 | 74 | 249 | 0.0 | 0.0 | 0.00 | 0.05 | 0.05 | 99 | 1015.1 |
| 20260904121659 | 73 | 232 | 0.0 | 0.0 | 0.00 | 0.05 | 0.05 | 99 | 1015.4 |
| 20260904120657 | 72 | 216 | 0.0 | 0.0 | 0.00 | 0.05 | 0.05 | 99 | 1014.8 |
| 20260904115654 | 71 | 182 | 0.0 | 0.0 | 0.00 | 0.05 | 0.05 | 99 | 1014.8 |
| 20260904114654 | 70 | 216 | 0.0 | 0.0 | 0.00 | 0.05 | 0.05 | 99 | 1015.1 |
| 20260904113649 | 70 | 207 | 0.0 | 0.0 | 0.00 | 0.05 | 0.05 | 99 | 1015.1 |
| 20260904112644 | 69 | 205 | 0.0 | 0.0 | 0.00 | 0.05 | 0.05 | 99 | 1015.1 |
| 20260904111641 | 69 | 209 | 0.0 | 0.0 | 0.00 | 0.05 | 0.05 | 99 | 1014.9 |
| 20260904110638 | 69 | 233 | 0.0 | 0.0 | 0.00 | 0.05 | 0.05 | 99 | 1015.4 |
| 20260904105637 | 69 | 239 | 0.0 | 0.0 | 0.00 | 0.05 | 0.05 | 99 | 1015.0 |
| 20260904104634 | 69 | 223 | 0.0 | 0.0 | 0.00 | 0.05 | 0.05 | 99 | 1014.6 |
| 20260904103631 | 69 | 201 | 0.0 | 0.0 | 0.00 | 0.05 | 0.05 | 99 | 1014.5 |
| 20260904102629 | 69 | 239 | 0.0 | 0.0 | 0.00 | 0.05 | 0.05 | 99 | 1014.6 |
| 20260904101626 | 69 | 220 | 0.0 | 0.0 | 0.00 | 0.05 | 0.05 | 99 | 1014.3 |
| 20260904100623 | 69 | 218 | 0.0 | 0.0 | 0.00 | 0.05 | 0.05 | 99 | 1014.1 |
| 20260904095619 | 69 | 222 | 0.0 | 0.0 | 0.00 | 0.05 | 0.05 | 99 | 1013.8 |
| 20260904094614 | 69 | 221 | 0.0 | 0.0 | 0.00 | 0.05 | 0.05 | 99 | 1013.7 |
| 20260904093612 | 69 | 216 | 0.0 | 0.0 | 0.00 | 0.05 | 0.05 | 99 | 1013.7 |
| 20260904092608 | 69 | 224 | 0.0 | 0.0 | 0.00 | 0.05 | 0.05 | 99 | 1013.7 |
| 20260904091606 | 69 | 219 | 0.0 | 0.0 | 0.00 | 0.05 | 0.05 | 99 | 1013.5 |
| 20260904090607 | 69 | 206 | 0.0 | 0.0 | 0.00 | 0.05 | 0.05 | 99 | 1013.7 |
| 20260904085602 | 69 | 218 | 0.0 | 0.0 | 0.00 | 0.05 | 0.05 | 99 | 1013.8 |
| 20260904084558 | 69 | 230 | 0.0 | 0.0 | 0.00 | 0.05 | 0.05 | 99 | 1013.7 |
| 20260904083555 | 69 | 201 | 0.0 | 0.0 | 0.00 | 0.05 | 0.05 | 99 | 1014.1 |
| 20260904082552 | 69 | 217 | 0.0 | 0.0 | 0.00 | 0.05 | 0.05 | 99 | 1014.0 |
| 20260904081548 | 69 | 215 | 0.0 | 0.0 | 0.00 | 0.05 | 0.05 | 99 | 1014.0 |
| 20260904080545 | 69 | 232 | 0.0 | 0.0 | 0.00 | 0.05 | 0.05 | 99 | 1014.0 |
| 20260904075543 | 69 | 224 | 0.0 | 0.0 | 0.00 | 0.05 | 0.05 | 99 | 1013.8 |
| 20260904074542 | 69 | 214 | 0.0 | 0.0 | 0.00 | 0.05 | 0.05 | 99 | 1013.7 |
| 20260904073538 | 69 | 206 | 0.0 | 0.0 | 0.00 | 0.05 | 0.05 | 99 | 1013.6 |
| 20260904072536 | 69 | 220 | 0.0 | 0.0 | 0.00 | 0.05 | 0.05 | 99 | 1013.7 |
| 20260904071532 | 69 | 220 | 0.0 | 0.0 | 0.00 | 0.05 | 0.05 | 99 | 1014.1 |
| 20260904070532 | 69 | 212 | 0.0 | 0.0 | 0.00 | 0.05 | 0.05 | 99 | 1013.9 |
| 20260904065528 | 69 | 208 | 0.0 | 0.0 | 0.00 | 0.05 | 0.05 | 99 | 1013.9 |
| 20260904064526 | 69 | 198 | 0.0 | 0.0 | 0.00 | 0.05 | 0.05 | 99 | 1013.7 |
| 20260904063523 | 69 | 215 | 0.0 | 0.0 | 0.00 | 0.05 | 0.05 | 99 | 1013.7 |
| 20260904062520 | 69 | 209 | 0.0 | 0.0 | 0.00 | 0.05 | 0.05 | 99 | 1013.2 |
| 20260904061516 | 69 | 115 | 0.0 | 0.0 | 0.00 | 0.05 | 0.05 | 99 | 1012.9 |
| 20260904060515 | 69 | 218 | 0.0 | 0.0 | 0.00 | 0.05 | 0.05 | 99 | 1012.9 |
| 20260904055511 | 70 | 238 | 0.0 | 0.0 | 0.00 | 0.05 | 0.05 | 99 | 1013.1 |
| 20260904054508 | 70 | 220 | 0.0 | 0.0 | 0.00 | 0.05 | 0.05 | 99 | 1013.2 |
| 20260904053503 | 70 | 193 | 0.0 | 0.0 | 0.00 | 0.05 | 0.05 | 99 | 1013.2 |
| 20260904052500 | 70 | 198 | 0.0 | 0.0 | 0.05 | 0.05 | 0.05 | 99 | 1013.7 |
| 20260904051459 | 70 | 215 | 0.0 | 0.0 | 0.07 | 0.04 | 0.04 | 99 | 1014.2 |
| 20260904050454 | 70 | 184 | 1.0 | 1.0 | 0.07 | 0.03 | 0.03 | 99 | 1014.6 |
| 20260904045449 | 70 | 222 | 0.0 | 0.0 | 0.05 | 0.02 | 0.02 | 99 | 1015.6 |
| 20260904044446 | 70 | 214 | 0.0 | 0.0 | 0.07 | 0.01 | 0.01 | 99 | 1015.7 |
| 20260904043444 | 70 | 217 | 0.0 | 0.0 | 0.00 | 0.00 | 0.00 | 99 | 1015.8 |
| 20260904042442 | 70 | 167 | 0.0 | 0.0 | 0.00 | 0.00 | 0.00 | 99 | 1016.5 |
| 20260904041439 | 70 | 211 | 0.0 | 0.0 | 0.00 | 0.00 | 0.00 | 99 | 1017.0 |
| 20260904040434 | 70 | 217 | 0.0 | 0.0 | 0.00 | 0.00 | 0.00 | 99 | 1017.2 |
| 20260904035432 | 70 | 223 | 0.0 | 0.0 | 0.00 | 0.54 | 0.54 | 99 | 1016.8 |
| 20260904034427 | 71 | 233 | 0.0 | 1.0 | 0.28 | 0.54 | 0.54 | 99 | 1016.5 |
| 20260904033424 | 71 | 17 | 5.0 | 7.0 | 1.16 | 0.49 | 0.49 | 99 | 1016.7 |
| 20260904032422 | 74 | 3 | 2.0 | 6.0 | 0.59 | 0.26 | 0.26 | 96 | 1017.9 |
| 20260904031417 | 76 | 299 | 4.0 | 7.0 | 0.97 | 0.16 | 0.16 | 95 | 1016.1 |
| 20260904030413 | 80 | 224 | 0.0 | 0.0 | 0.00 | 0.00 | 0.00 | 96 | 1014.9 |
| 20260904025410 | 79 | 219 | 0.0 | 0.0 | 0.00 | 0.00 | 0.00 | 98 | 1013.6 |
| 20260904024405 | 79 | 218 | 0.0 | 0.0 | 0.00 | 0.00 | 0.00 | 98 | 1013.6 |
| 20260904023403 | 79 | 194 | 0.0 | 0.0 | 0.00 | 0.00 | 0.00 | 98 | 1014.1 |
| 20260904022359 | 79 | 221 | 0.0 | 0.0 | 0.00 | 0.00 | 0.00 | 96 | 1014.6 |
| 20260904021356 | 79 | 254 | 0.0 | 0.0 | 0.00 | 0.00 | 0.00 | 96 | 1014.2 |
| 20260904020352 | 80 | 205 | 0.0 | 0.0 | 0.00 | 0.00 | 0.00 | 96 | 1014.3 |
| 20260904015347 | 80 | 209 | 0.0 | 0.0 | 0.00 | 0.00 | 0.00 | 94 | 1014.4 |
| 20260904014346 | 80 | 203 | 0.0 | 0.0 | 0.00 | 0.00 | 0.00 | 94 | 1014.5 |
| 20260904013343 | 81 | 185 | 1.0 | 1.0 | 0.00 | 0.00 | 0.00 | 92 | 1014.3 |